Flag for Germany Weather past 2 weeks in Göttingen, Lower Saxony, Germany

Now
79 °F

Sunny.


Feels Like: 79 °F
Forecast: 52 / 85 °F
Wind: 2 mph from North

Location: Kassel / Calden

Current Time: Aug 2, 2015 at 4:33:27 PM

Latest Report: Aug 2, 2015 at 4:20 PM


Visibility: 10 mi

Pressure: 30.12 "Hg

Humidity: 34%

Dew point: 48 °F

Location of GöttingenLocation

Historic Weather in Göttingen — Graph

°F

Göttingen temperature yesterday

Maximum temperature yesterday: 79 °F (at 6:20 PM)
Minimum temperature yesterday: 46 °F (at 4:50 AM)
Average temperature yesterday: 65 °F

Past Weeks' High & Low Weather Summary

 TemperatureHumidityPressure
High82 °F (Jul 21, 3:50 PM)100% (Jul 19, 7:20 AM)30.15 "Hg (Jul 19, 7:20 AM)
Low45 °F (Jul 31, 6:20 AM)25% (Jul 18, 8:20 PM)29.56 "Hg (Jul 25, 10:20 AM)
Average65 °F66%29.89 "Hg
* Reported Jul 18 3:20 PM — Aug 2 3:20 PM, Göttingen, Weather by CustomWeather, © 2015

Note: Actual official high and low records may vary slightly from our data, if they occured in-between our weather recording intervals... More about our weather records

Advertising

Göttingen weather history for previous 24 hours

 ConditionsComfort  
Time TempWeatherWind HumidityBarometerVisibility
3:20 PM
Sun, Aug 2
77 °FSunny.5 mph36%30.12 "Hg10 mi
2:50 PM79 °FSunny.3 mph37%30.12 "Hg10 mi
2:20 PM75 °FPassing clouds.5 mph39%30.15 "HgN/A
1:50 PM75 °FSunny.3 mph41%30.15 "Hg10 mi
1:20 PM73 °FPassing clouds.6 mph44%30.15 "HgN/A
12:50 PM72 °FPassing clouds.6 mph44%30.15 "HgN/A
12:20 PM72 °FPassing clouds.6 mph44%30.15 "HgN/A
11:50 AM72 °FPassing clouds.5 mph47%30.15 "HgN/A
11:20 AM70 °FPassing clouds.6 mph50%30.15 "HgN/A
10:50 AM68 °FSunny.7 mph49%30.15 "Hg10 mi
10:20 AM66 °FPassing clouds.7 mph52%30.15 "HgN/A
9:50 AM64 °FPassing clouds.3 mph56%30.15 "HgN/A
9:20 AM64 °FPassing clouds.3 mph64%30.15 "HgN/A
8:50 AM63 °FSunny.2 mph68%30.12 "Hg10 mi
8:20 AM61 °FSunny.3 mph68%30.12 "Hg10 mi
7:50 AM59 °FSunny.1 mph77%30.12 "Hg10 mi
7:20 AM57 °FSunny.1 mph77%30.12 "Hg10 mi
6:50 AM54 °FSunny.1 mph88%30.12 "Hg10 mi
6:20 AM54 °FClear.3 mph82%30.12 "Hg10 mi
5:50 AM52 °FClear.2 mph88%30.09 "Hg10 mi
9:50 PM
Sat, Aug 1
66 °FSunny.8 mph56%30.01 "Hg10 mi
9:20 PM64 °FSunny.3 mph56%30.01 "Hg10 mi
8:50 PM68 °FSunny.1 mph49%29.98 "Hg10 mi
8:20 PM73 °FSunny.2 mph38%29.98 "Hg10 mi
7:50 PM75 °FSunny.2 mph36%29.98 "Hg10 mi
7:20 PM77 °FPassing clouds.3 mph32%29.98 "HgN/A
6:50 PM77 °FSunny.2 mph34%29.98 "Hg10 mi
6:20 PM79 °FPassing clouds.3 mph30%29.98 "HgN/A
5:50 PM75 °FSunny.2 mph34%29.98 "Hg10 mi
5:20 PM77 °FSunny.2 mph34%29.98 "Hg10 mi
4:50 PM75 °FPassing clouds.7 mph36%29.98 "HgN/A
4:20 PM77 °FPassing clouds.7 mph32%29.98 "HgN/A
Weather by CustomWeather, © 2015

See weather overviewHow to use our weather pages